Location: Allonne
(49.4086°N, 2.1143°E)
Time: 13:18:47
(UTC+00:00)

Cosmos 1461 - Visible Passes

Search period start: 25 September 2023 00:00
Search period end: 05 October 2023 00:00
Orbit: 491 x 630 km, 65.0° (Epoch: 24 September)

Date Brightness Start Highest point End Pass type
(mag) Time Alt. Az. Time Alt. Az. Time Alt. Az.
25 Sep 5.3 01:56:53 22° ENE 01:56:53 22° ENE 01:58:49 10° NE visible
25 Sep 3.6 03:32:48 42° WNW 03:33:16 44° NW 03:37:37 10° NNE visible
25 Sep 5.1 05:10:19 10° WNW 05:12:59 15° NNW 05:15:37 10° NNE visible
26 Sep 5.3 01:55:35 22° ENE 01:55:35 22° ENE 01:57:25 10° NE visible
26 Sep 3.9 03:31:30 35° NW 03:31:49 36° NW 03:36:01 10° NNE visible
26 Sep 5.3 05:09:22 10° NW 05:11:41 14° NNW 05:13:58 10° NNE visible
27 Sep 5.4 01:54:14 22° NE 01:54:14 22° NE 01:55:56 10° NE visible
27 Sep 4.2 03:30:09 29° NW 03:30:22 30° NW 03:34:21 10° NNE visible
27 Sep 5.4 05:08:25 10° NW 05:10:22 12° NNW 05:12:18 10° NNE visible
28 Sep 5.5 01:52:50 21° NE 01:52:50 21° NE 01:54:23 10° NE visible
28 Sep 4.5 03:28:44 25° NW 03:28:54 25° NNW 03:32:40 10° NNE visible
28 Sep 5.4 05:07:26 10° NNW 05:09:02 12° N 05:10:37 10° N visible
29 Sep 5.6 01:51:22 20° NE 01:51:22 20° NE 01:52:45 10° NE visible
29 Sep 4.8 03:27:16 21° NNW 03:27:27 21° NNW 03:30:56 10° NNE visible
29 Sep 5.5 05:06:24 10° NNW 05:07:41 11° N 05:08:58 10° N visible
30 Sep 5.7 01:49:51 18° NNE 01:49:51 18° NNE 01:51:05 10° NE visible
30 Sep 5.0 03:25:45 18° NNW 03:25:59 19° NNW 03:29:09 10° NNE visible
30 Sep 5.5 05:05:15 10° NNW 05:06:19 11° N 05:07:23 10° N visible
01 Oct 5.8 01:48:17 17° NNE 01:48:17 17° NNE 01:49:22 10° NNE visible
01 Oct 5.1 03:24:11 16° NNW 03:24:31 16° NNW 03:27:22 10° NNE visible
01 Oct 5.6 05:03:55 10° NNW 05:04:55 11° N 05:05:55 10° NNE visible
02 Oct 5.9 01:46:41 15° NNE 01:46:41 15° NNE 01:47:35 10° NNE visible
02 Oct 5.3 03:22:35 14° NNW 03:23:01 15° NNW 03:25:32 10° NNE visible
02 Oct 5.6 05:02:22 10° N 05:03:29 11° N 05:04:36 10° NNE visible
03 Oct 6.0 01:45:03 14° NNE 01:45:03 14° NNE 01:45:47 10° NNE visible
03 Oct 5.4 03:20:56 13° NNW 03:21:32 13° NNW 03:23:41 10° NNE visible
03 Oct 5.6 05:00:40 10° N 05:02:01 11° N 05:03:22 10° NNE visible
04 Oct 6.0 01:43:23 13° NNE 01:43:23 13° NNE 01:43:55 10° NNE visible
04 Oct 5.5 03:19:16 12° NNW 03:20:01 12° NNW 03:21:49 10° N visible
04 Oct 5.6 04:58:51 10° N 05:00:32 12° NNE 05:02:11 10° NE visible
